TimeEDT,TemperatureF,Dew PointF,Humidity,Sea Level PressureIn,VisibilityMPH,Wind Direction,Wind SpeedMPH,Gust SpeedMPH,PrecipitationIn,Events,Conditions,WindDirDegrees,DateUTC
12:54 AM,55.9,52.0,87,30.13,10.0,Calm,Calm,-,N/A,,Clear,0,2012-10-25 04:54:00
1:54 AM,53.1,51.1,93,30.13,10.0,Calm,Calm,-,N/A,,Clear,0,2012-10-25 05:54:00
2:54 AM,52.0,50.0,93,30.13,10.0,Calm,Calm,-,N/A,,Clear,0,2012-10-25 06:54:00
3:54 AM,53.1,51.1,93,30.12,10.0,Calm,Calm,-,N/A,,Clear,0,2012-10-25 07:54:00
4:54 AM,51.1,50.0,96,30.12,10.0,Calm,Calm,-,N/A,,Clear,0,2012-10-25 08:54:00
5:54 AM,50.0,50.0,100,30.13,10.0,Calm,Calm,-,N/A,,Clear,0,2012-10-25 09:54:00
6:54 AM,51.1,50.0,96,30.15,10.0,Calm,Calm,-,N/A,,Clear,0,2012-10-25 10:54:00
7:54 AM,51.1,50.0,96,30.16,10.0,Calm,Calm,-,N/A,,Clear,0,2012-10-25 11:54:00
8:54 AM,59.0,53.6,82,30.18,10.0,Calm,Calm,-,N/A,,Clear,0,2012-10-25 12:54:00
9:54 AM,64.9,53.1,65,30.18,10.0,NNE,5.8,-,N/A,,Clear,30,2012-10-25 13:54:00
10:54 AM,70.0,53.1,55,30.18,10.0,ENE,3.5,-,N/A,,Clear,60,2012-10-25 14:54:00
11:54 AM,75.0,52.0,44,30.17,10.0,SSE,3.5,-,N/A,,Clear,150,2012-10-25 15:54:00
12:54 PM,77.0,50.0,39,30.15,10.0,SE,8.1,-,N/A,,Clear,130,2012-10-25 16:54:00
1:54 PM,78.1,50.0,37,30.14,10.0,Calm,Calm,-,N/A,,Clear,0,2012-10-25 17:54:00
2:54 PM,79.0,48.9,35,30.12,10.0,East,6.9,-,N/A,,Clear,100,2012-10-25 18:54:00
3:54 PM,80.1,50.0,35,30.12,10.0,SE,6.9,-,N/A,,Clear,140,2012-10-25 19:54:00
4:54 PM,78.1,48.9,36,30.12,10.0,ESE,8.1,-,N/A,,Clear,110,2012-10-25 20:54:00
5:54 PM,75.0,50.0,41,30.13,10.0,SSE,5.8,-,N/A,,Clear,150,2012-10-25 21:54:00
6:54 PM,66.9,50.0,54,30.14,10.0,Calm,Calm,-,N/A,,Clear,0,2012-10-25 22:54:00
7:54 PM,62.1,50.0,65,30.15,10.0,Calm,Calm,-,N/A,,Clear,0,2012-10-25 23:54:00
8:54 PM,60.1,50.0,69,30.16,10.0,Calm,Calm,-,N/A,,Clear,0,2012-10-26 00:54:00
9:54 PM,59.0,52.0,78,30.15,10.0,Calm,Calm,-,N/A,,Clear,0,2012-10-26 01:54:00
10:54 PM,57.9,52.0,81,30.14,10.0,Calm,Calm,-,N/A,,Clear,0,2012-10-26 02:54:00
11:54 PM,57.0,52.0,83,30.13,10.0,Calm,Calm,-,N/A,,Clear,0,2012-10-26 03:54:00